Date String (YYYY-MM-DD hh:mm:ss) UTC,Instrument flags,Ambient pressure (hPa),Sample flow (lpm),Bypass flow (lpm),Sample temperature (°C),Ambient temperature (°C),ASC tube jacket temperature (°C),LED temperature (°C),Box temperature (°C),Sample RH (%),Span deviation,Mass concentration (μg/m³),Mass concentration (μg/m³),Mass concentration (μg/m³)
DateTimeUTC,F1_M11,P_M11,Q1_M11,Q2_M11,T1_M11,T2_M11,T3_M11,T4_M11,T5_M11,U1_M11,ZSPAN_M11,X0_M11,X2_M11,X1_M11
2022-12-27 13:00:00,,0818.7,4.99,0.00,21.6,20.0,00.0,30.6,23.4,14.7,0000.0,0004.38,0003.43,0003.37
2022-12-27 13:01:00,,0818.7,5.01,0.00,21.6,20.1,00.0,30.6,23.4,14.7,0000.0,0004.65,0003.54,0003.47
2022-12-27 13:02:00,,0818.6,4.97,0.00,21.7,20.3,00.0,30.6,23.4,14.6,0000.0,0004.85,0003.63,0003.56
2022-12-27 13:03:00,,0818.5,4.99,0.00,21.7,20.4,00.0,30.6,23.5,14.6,0000.0,0005.26,0003.48,0003.41
2022-12-27 13:04:00,,0818.6,5.02,0.00,21.7,20.4,00.0,30.6,23.5,14.9,0000.0,0004.95,0003.28,0003.21
2022-12-27 13:05:00,,0818.6,5.02,0.00,21.7,20.5,00.0,30.6,23.5,15.2,0000.0,0004.71,0003.18,0003.08
2022-12-27 13:06:00,,0818.5,5.01,0.00,21.7,20.5,00.0,30.6,23.5,14.9,0000.0,0004.60,0003.13,0002.98
2022-12-27 13:07:00,,0818.5,4.99,0.00,21.7,20.6,00.0,30.6,23.5,14.7,0000.0,0004.71,0003.17,0003.03
2022-12-27 13:08:00,,0818.4,4.97,0.00,21.7,20.6,00.0,30.6,23.5,14.5,0000.0,0004.59,0003.09,0002.93
2022-12-27 13:09:00,,0818.4,5.00,0.00,21.7,20.6,00.0,30.6,23.5,14.4,0000.0,0004.33,0002.85,0002.68
2022-12-27 13:10:00,,0818.4,5.03,0.00,21.7,20.4,00.0,30.6,23.5,14.3,0000.0,0004.03,0002.57,0002.41
2022-12-27 13:11:00,,0818.4,5.00,0.00,21.7,20.4,00.0,30.6,23.4,14.2,0000.0,0003.85,0002.43,0002.27
2022-12-27 13:12:00,,0818.4,5.00,0.00,21.7,20.2,00.0,30.6,23.4,14.3,0000.0,0003.63,0002.28,0002.14
2022-12-27 13:13:00,,0818.4,4.98,0.00,21.7,20.2,00.0,30.6,23.4,14.4,0000.0,0003.51,0002.18,0002.04
2022-12-27 13:14:00,,0818.4,4.97,0.00,21.7,20.3,00.0,30.6,23.4,14.4,0000.0,0002.87,0002.10,0001.96
2022-12-27 13:15:00,,0818.5,5.02,0.00,21.7,20.4,00.0,30.6,23.4,14.8,0000.0,0002.47,0002.01,0001.87
2022-12-27 13:16:00,,0818.6,5.03,0.00,21.7,20.4,00.0,30.6,23.5,14.7,0000.0,0002.13,0001.75,0001.63
2022-12-27 13:17:00,,0818.6,4.99,0.00,21.7,20.5,00.0,30.6,23.5,14.5,0000.0,0001.92,0001.57,0001.46
2022-12-27 13:18:00,,0818.5,4.98,0.00,21.7,20.5,00.0,30.6,23.5,14.8,0000.0,0001.90,0001.50,0001.39
2022-12-27 13:19:00,,0818.5,4.97,0.00,21.7,20.5,00.0,30.6,23.5,14.5,0000.0,0001.85,0001.47,0001.37
2022-12-27 13:20:00,,0818.4,5.04,0.00,21.7,20.4,00.0,30.6,23.4,14.2,0000.0,0001.76,0001.43,0001.34
2022-12-27 13:21:00,,0818.4,5.02,0.00,21.7,20.3,00.0,30.6,23.4,14.2,0000.0,0001.73,0001.40,0001.30
2022-12-27 13:22:00,,0818.5,4.99,0.00,21.7,20.2,00.0,30.6,23.4,14.2,0000.0,0001.70,0001.37,0001.28
2022-12-27 13:23:00,,0818.4,4.97,0.00,21.7,20.1,00.0,30.6,23.4,14.5,0000.0,0001.72,0001.38,0001.27
2022-12-27 13:24:00,,0818.4,4.99,0.00,21.6,20.0,00.0,30.6,23.3,14.4,0000.0,0002.40,0001.36,0001.25
2022-12-27 13:25:00,,0818.4,5.03,0.00,21.6,19.9,00.0,30.6,23.2,14.2,0000.0,0002.65,0001.31,0001.22
2022-12-27 13:26:00,,0818.4,5.03,0.00,21.6,19.9,00.0,30.6,23.3,14.1,0000.0,0002.65,0001.28,0001.16
2022-12-27 13:27:00,,0818.3,4.99,0.00,21.5,19.9,00.0,30.5,23.3,14.1,0000.0,0002.60,0001.22,0001.10
2022-12-27 13:28:00,,0818.4,4.97,0.00,21.5,19.8,00.0,30.5,23.2,14.1,0000.0,0002.56,0001.18,0001.06
2022-12-27 13:29:00,,0818.4,4.98,0.00,21.5,19.9,00.0,30.5,23.2,14.3,0000.0,0002.48,0001.15,0001.02
2022-12-27 13:30:00,,0818.4,5.01,0.00,21.5,20.0,00.0,30.5,23.3,14.2,0000.0,0002.49,0001.14,0000.99
2022-12-27 13:31:00,,0818.4,5.02,0.00,21.5,20.2,00.0,30.5,23.3,14.1,0000.0,0002.46,0001.10,0000.95
2022-12-27 13:32:00,,0818.2,5.00,0.00,21.5,20.3,00.0,30.5,23.3,14.0,0000.0,0002.44,0001.08,0000.94
2022-12-27 13:33:00,,0818.1,4.98,0.00,21.6,20.3,00.0,30.5,23.4,14.0,0000.0,0002.44,0001.07,0000.92
2022-12-27 13:34:00,,0818.0,4.97,0.00,21.6,20.3,00.0,30.5,23.4,13.9,0000.0,0002.39,0001.03,0000.88
2022-12-27 13:35:00,,0818.0,5.01,0.00,21.6,20.4,00.0,30.5,23.4,14.0,0000.0,0001.83,0001.01,0000.85
2022-12-27 13:36:00,,0818.1,5.02,0.00,21.6,20.4,00.0,30.5,23.4,14.1,0000.0,0001.35,0001.00,0000.82
2022-12-27 13:37:00,,0818.2,5.01,0.00,21.6,20.5,00.0,30.5,23.5,14.3,0000.0,0001.33,0000.99,0000.83
2022-12-27 13:38:00,,0818.2,4.97,0.00,21.6,20.5,00.0,30.5,23.5,14.7,0000.0,0001.40,0001.06,0000.90
2022-12-27 13:39:00,,0818.2,4.98,0.00,21.6,20.5,00.0,30.5,23.5,14.6,0000.0,0001.52,0001.16,0000.99
2022-12-27 13:40:00,,0818.2,5.00,0.00,21.6,20.5,00.0,30.5,23.5,14.6,0000.0,0001.54,0001.19,0001.04
2022-12-27 13:41:00,,0818.2,5.02,0.00,21.6,20.5,00.0,30.5,23.5,14.5,0000.0,0001.65,0001.24,0001.10
2022-12-27 13:42:00,,0818.3,5.02,0.00,21.7,20.6,00.0,30.5,23.5,14.5,0000.0,0001.76,0001.33,0001.17
2022-12-27 13:43:00,,0818.3,4.99,0.00,21.7,20.6,00.0,30.5,23.5,14.1,0000.0,0001.77,0001.34,0001.20
2022-12-27 13:44:00,,0818.3,4.97,0.00,21.7,20.5,00.0,30.5,23.5,13.8,0000.0,0001.72,0001.32,0001.19
2022-12-27 13:45:00,,0818.2,4.98,0.00,21.7,20.3,00.0,30.6,23.4,13.7,0000.0,0001.66,0001.29,0001.17
2022-12-27 13:46:00,,0818.0,5.02,0.00,21.6,20.2,00.0,30.5,23.4,13.7,0000.0,0001.59,0001.24,0001.14
2022-12-27 13:47:00,,0818.0,5.01,0.00,21.6,20.1,00.0,30.5,23.4,13.7,0000.0,0001.49,0001.17,0001.11
2022-12-27 13:48:00,,0818.0,4.99,0.00,21.6,20.1,00.0,30.5,23.4,13.7,0000.0,0001.50,0001.12,0001.05
2022-12-27 13:49:00,,0817.9,4.97,0.00,21.6,20.1,00.0,30.5,23.4,13.6,0000.0,0001.41,0001.01,0000.95
2022-12-27 13:50:00,,0817.9,4.98,0.00,21.6,20.1,00.0,30.5,23.4,13.6,0000.0,0001.25,0000.88,0000.81
2022-12-27 13:51:00,,0817.9,5.03,0.00,21.6,20.1,00.0,30.5,23.4,13.8,0000.0,0001.11,0000.77,0000.71
2022-12-27 13:52:00,,0817.9,5.01,0.00,21.6,20.1,00.0,30.5,23.4,13.6,0000.0,0000.86,0000.62,0000.58
2022-12-27 13:53:00,,0818.0,4.99,0.00,21.6,20.2,00.0,30.5,23.4,13.6,0000.0,0000.71,0000.50,0000.48
2022-12-27 13:54:00,,0818.0,4.97,0.00,21.6,20.2,00.0,30.5,23.4,13.7,0000.0,0000.66,0000.45,0000.43
2022-12-27 13:55:00,,0818.0,5.02,0.00,21.6,20.1,00.0,30.5,23.4,13.7,0000.0,0000.65,0000.45,0000.42
2022-12-27 13:56:00,,0818.0,5.06,0.00,21.6,20.1,00.0,30.5,23.4,13.7,0000.0,0000.67,0000.45,0000.41
2022-12-27 13:57:00,,0817.9,4.99,0.00,21.6,20.1,00.0,30.5,23.3,13.7,0000.0,0000.67,0000.44,0000.40
2022-12-27 13:58:00,,0818.0,5.00,0.00,21.6,20.0,00.0,30.5,23.3,13.7,0000.0,0000.72,0000.43,0000.39
2022-12-27 13:59:00,,0817.9,4.97,0.00,21.5,20.0,00.0,30.5,23.3,13.7,0000.0,0001.45,0000.41,0000.38
